Regional Weather Roundup
Issued by NWS Lake Charles, LA

Home | Current Version | Previous Version | Text Only | Print | Product List | Glossary On
Versions: 1 2 3 4 5 6 7 8 9 10 11 12 13 14 15 16 17 18 19 20 21 22 23 24 25 26 27 28 29 30 31 32 33 34 35 36 37 38 39 40 41 42 43 44 45 46 47 48 49 50
629
ASUS44 KLCH 200510
RWRLCH
REGIONAL WEATHER ROUNDUP
NATIONAL WEATHER SERVICE LAKE CHARLES LA
1200 AM CDT WED SEP 20 2017

Note: "fair" indicates few or no clouds below 12,000 feet with no
significant weather and/or obstructions to visibility.


ACROSS SOUTHEAST TEXAS

CITY           SKY/WX    TMP DP  RH WIND       PRES   REMARKS
BEAUMONT       CLEAR     78  76  93 SE7       29.92S
BEAUMONT CITY  FAIR      78  75  91 CALM      29.93F
ORANGE         PTCLDY    80  78  95 S3        29.95S
JASPER         CLEAR     78  76  93 CALM      29.96S
$$

ACROSS CENTRAL LOUISIANA

CITY           SKY/WX    TMP DP  RH WIND       PRES   REMARKS
LEESVILLE      PTCLDY    76  74  93 S5        29.94S
FULLERTON      FAIR      76  74  93 CALM      29.93S
ALEXANDRIA INT CLEAR     76  74  93 S3        29.93S
ESLER FIELD    CLEAR     74  74 100 CALM      29.95S
DERIDDER       FAIR      76  75  95 SE3       29.97S
OAKDALE          N/A     72  71  95 CALM      29.96S FOG
OPELOUSAS      FAIR      75  74  96 SW3       29.96S
$$

ACROSS SOUTHWEST AND SOUTH CENTRAL LOUISIANA

CITY           SKY/WX    TMP DP  RH WIND       PRES   REMARKS
SULPHUR        PTCLDY    80  76  89 S5        29.95S
LAKE CHARLES   CLEAR     78  76  93 SE3       29.94S
CHENNAULT INT    N/A     76  75  98 SE5       29.95S
CAMERON PHI      N/A     82  77  83 S12       29.93S
DEQUINCY       FAIR      74  73  97 CALM      29.95F
JENNINGS       FAIR      78  75  91 S3        29.95F
LAFAYETTE      PTCLDY    78  77  96 CALM      29.96S
NEW IBERIA     MOCLDY    78  74  87 S5        29.96F
ABBEVILLE      FAIR      75  75 100 S3        29.96F
PATTERSON      PTCLDY    76  75  97 CALM      29.98S
SALT POINT       N/A     81  75  82 S3        29.95S
$$

SELECTED SITES ACROSS THE REGION

CITY           SKY/WX    TMP DP  RH WIND       PRES   REMARKS
HOUSTON BUSH   CLOUDY    80  76  87 S5        29.90S
HOUSTON HOBBY  MOCLDY    81  76  84 S6        29.89F
GALVESTON      MOCLDY    84  78  82 SE17      29.91S
COLLEGE STAT   CLOUDY    81  74  79 SE10      29.88R
CONROE         CLOUDY    77  74  90 SE6       29.90F
HUNTSVILLE     MOCLDY    80  73  79 VRB5      29.90S
LUFKIN         PTCLDY    76  75  97 SE7       29.91F
SHREVEPORT     PTCLDY    78  75  90 S8        29.91S
MONROE         PTCLDY    77  73  87 S5        29.94S
NATCHEZ MS     CLEAR     75  73  93 S3        29.97S
BATON ROUGE    CLEAR     79  73  82 S5        29.97S
N.O. INTL ARPT PTCLDY    78  74  87 S5        29.98R
SLIDELL        PTCLDY    80  74  81 CALM      29.97S
$$

MARINE REPORTS

STATION/POSITION TIME  SKY/WX   TEMP    WIND        PRES    VSBY
                                AIR SEA DIR/SP/G
                 (UTC)          (F)     (DEG/KT/KT) (MB)    (MI)
BUOY 30 S HIGH I NOT AVBL
SEA RIM ST PARK  0400            82     160/ 11/ 15 1014.0R
PORT ARTHUR      0448            81 82  160/  6/  8 1013.7S
SABINE PASS N    0448            82 85  160/  9/ 12 1015.0S
TEXAS POINT      NOT AVBL
CALCASIEU PASS   0436               84  180/ 14/ 17 1012.9F
LK CHARLES BEACH NOT AVBL
MARSH ISLAND     0400            83                   N/A
FRESH WATER LOCK 0448            82 85  160/  8/ 11 1014.5S
AMERADA PASS     0448            81 83   CALM  /  2 1014.8S
$$




USA.gov is the U.S. government's official web portal to all federal, state and local government web resources and services.